|
Tsikada Rocket - Orbit
|
Smithsonian NASM Public Observatory;
01:21:08
| Home | Info | Passes |
|
View from above orbital plane
|
View from above satellite
|
Ground track
|
The orbit data is extracted from the following two-line orbital elements,
1 23466U 95002D 13138.18179328 -.00000008 00000-0 -24087-4 0 5926
2 23466 082.9244 291.6697 0034947 034.9356 016.8028 13.74249924918490
| Epoch (UTC): | 18 May 2013 04:21:46 |
| Eccentricity: | 0.0034947 |
| inclination: | 82.9244° |
| perigee height: | 958 km |
| apogee height: | 1010 km |
| right ascension of ascending node: | 291.6697° |
| argument of perigee: | 34.9356° |
| revolutions per day: | 13.74249924 |
| mean anomaly at epoch: | 16.8028° |
| orbit number at epoch: | 91849 |
The dashed part of the orbit path shows where the satellite is in the earth's shadow,
|
|